• In Czech Republic
  • List of Countries
  • For 7 days
  • Water Temperature
  • Satellite Maps
  • Weather Map
  • Weather Widgets
  • user-avatar
    Login

    Hourly Weather Norfolk

    Today, 15 December, Friday

    Time Temperature Precipitation Wind Pressure Humidity
    00:00 +1°C° 0 mm 4 mps 764 mmHg 70%
    01:00 +1°C° 0 mm 5 mps 764 mmHg 70%
    02:00 +1°C° 0 mm 5 mps 763 mmHg 71%
    03:00 0°C° 0 mm 4 mps 763 mmHg 71%
    04:00 0°C° 0 mm 4 mps 763 mmHg 71%
    05:00 +1°C° 0 mm 4 mps 763 mmHg 72%
    06:00 +1°C° 0 mm 4 mps 763 mmHg 74%
    07:00 +1°C° 0 mm 5 mps 762 mmHg 68%
    08:00 +2°C° 0 mm 5 mps 762 mmHg 68%
    09:00 +5°C° 0 mm 5 mps 762 mmHg 68%
    10:00 +6°C° 0 mm 4 mps 761 mmHg 69%
    11:00 +7°C° 0 mm 4 mps 760 mmHg 71%
    12:00 +8°C° 0 mm 3 mps 760 mmHg 73%
    13:00 +9°C° 0 mm 2 mps 759 mmHg 75%
    14:00 +8°C° 0 mm 3 mps 759 mmHg 74%
    15:00 +6°C° 0 mm 5 mps 758 mmHg 74%
    16:00 +4°C° 0 mm 6 mps 758 mmHg 73%
    17:00 +3°C° 0 mm 6 mps 759 mmHg 72%
    18:00 +2°C° 0 mm 5 mps 760 mmHg 71%
    19:00 +1°C° 0 mm 5 mps 761 mmHg 70%
    20:00 +1°C° 0 mm 6 mps 761 mmHg 70%
    21:00 -1°C° 0 mm 6 mps 762 mmHg 70%
    22:00 -1°C° 0 mm 6 mps 763 mmHg 70%
    23:00 -1°C° 0 mm 6 mps 763 mmHg 68%

    Tomorrow, 16 December, Saturday

    Time Temperature Precipitation Wind Pressure Humidity
    00:00 -1°C° 0 mm 5 mps 764 mmHg 66%
    01:00 -1°C° 0 mm 5 mps 764 mmHg 64%
    02:00 -1°C° 0 mm 5 mps 764 mmHg 65%
    03:00 -2°C° 0 mm 5 mps 765 mmHg 66%
    04:00 -2°C° 0 mm 4 mps 765 mmHg 67%
    05:00 -2°C° 0 mm 4 mps 765 mmHg 67%
    06:00 -2°C° 0 mm 4 mps 766 mmHg 68%
    07:00 -2°C° 0 mm 4 mps 767 mmHg 68%
    08:00 -1°C° 0 mm 4 mps 767 mmHg 62%
    09:00 +1°C° 0 mm 4 mps 767 mmHg 57%
    10:00 +3°C° 0 mm 4 mps 767 mmHg 51%
    11:00 +4°C° 0 mm 4 mps 767 mmHg 49%
    12:00 +5°C° 0 mm 4 mps 767 mmHg 47%
    13:00 +7°C° 0 mm 4 mps 766 mmHg 45%
    14:00 +7°C° 0 mm 4 mps 766 mmHg 48%
    15:00 +7°C° 0 mm 4 mps 766 mmHg 52%
    16:00 +7°C° 0 mm 4 mps 766 mmHg 55%
    17:00 +6°C° 0 mm 4 mps 767 mmHg 59%
    18:00 +5°C° 0 mm 4 mps 768 mmHg 63%
    19:00 +4°C° 0 mm 4 mps 768 mmHg 67%
    20:00 +3°C° 0 mm 4 mps 768 mmHg 68%
    21:00 +3°C° 0 mm 4 mps 769 mmHg 69%
    22:00 +3°C° 0 mm 4 mps 769 mmHg 70%
    23:00 +3°C° 0 mm 4 mps 769 mmHg 71%

    Day after tomorrow, 17 December, Sunday

    Time Temperature Precipitation Wind Pressure Humidity
    00:00 +3°C° 0 mm 4 mps 769 mmHg 71%
    01:00 +1°C° 0 mm 4 mps 769 mmHg 72%
    02:00 +2°C° 0 mm 3 mps 769 mmHg 73%
    03:00 +2°C° 0 mm 3 mps 769 mmHg 74%
    04:00 +2°C° 0 mm 2 mps 769 mmHg 75%
    05:00 +2°C° 0 mm 2 mps 769 mmHg 76%
    06:00 +2°C° 0 mm 2 mps 770 mmHg 77%
    07:00 +2°C° 0 mm 2 mps 770 mmHg 78%
    08:00 +3°C° 0 mm 2 mps 770 mmHg 73%
    09:00 +5°C° 0 mm 2 mps 771 mmHg 69%
    10:00 +6°C° 0 mm 2 mps 771 mmHg 64%
    11:00 +7°C° 0 mm 3 mps 770 mmHg 61%
    12:00 +9°C° 0 mm 3 mps 769 mmHg 59%
    13:00 +10°C° 0 mm 3 mps 769 mmHg 56%
    14:00 +10°C° 0 mm 3 mps 769 mmHg 58%
    15:00 +10°C° 0 mm 3 mps 768 mmHg 60%
    16:00 +10°C° 0 mm 3 mps 768 mmHg 62%
    17:00 +10°C° 0 mm 3 mps 768 mmHg 64%
    18:00 +9°C° 0 mm 3 mps 768 mmHg 66%
    19:00 +8°C° 0 mm 4 mps 768 mmHg 68%
    20:00 +8°C° 0 mm 4 mps 768 mmHg 69%
    21:00 +8°C° 0 mm 4 mps 768 mmHg 70%
    22:00 +8°C° 0 mm 4 mps 768 mmHg 71%
    23:00 +8°C° 0 mm 4 mps 767 mmHg 74%

    18 December, Monday

    Time Temperature Precipitation Wind Pressure Humidity
    00:00 +7°C° 0 mm 4 mps 767 mmHg 76%
    01:00 +7°C° 0 mm 4 mps 767 mmHg 79%
    02:00 +7°C° 0 mm 4 mps 767 mmHg 82%
    03:00 +6°C° 0 mm 4 mps 766 mmHg 84%
    04:00 +7°C° 0 mm 3 mps 766 mmHg 87%
    05:00 +7°C° 0 mm 3 mps 767 mmHg 87%
    06:00 +7°C° 0 mm 3 mps 767 mmHg 86%
    07:00 +7°C° 0 mm 3 mps 767 mmHg 86%
    08:00 +8°C° 0 mm 3 mps 767 mmHg 80%
    09:00 +9°C° 0 mm 2 mps 767 mmHg 74%
    10:00 +10°C° 0 mm 2 mps 767 mmHg 68%
    11:00 +12°C° 0 mm 2 mps 767 mmHg 65%
    12:00 +14°C° 0 mm 2 mps 766 mmHg 63%
    13:00 +15°C° 0 mm 2 mps 765 mmHg 61%
    14:00 +15°C° 0 mm 2 mps 765 mmHg 65%
    15:00 +15°C° 0 mm 2 mps 765 mmHg 68%
    16:00 +15°C° 0 mm 2 mps 764 mmHg 72%
    17:00 +14°C° 0 mm 2 mps 764 mmHg 75%
    18:00 +13°C° 0 mm 3 mps 765 mmHg 78%
    19:00 +12°C° 0 mm 3 mps 765 mmHg 81%
    20:00 +12°C° 0.3 mm 4 mps 764 mmHg 86%
    21:00 +12°C° 0.3 mm 4 mps 764 mmHg 90%
    22:00 +12°C° 0.3 mm 4 mps 764 mmHg 94%
    23:00 +13°C° 0.1 mm 4 mps 763 mmHg 94%

    19 December, Tuesday

    Time Temperature Precipitation Wind Pressure Humidity
    00:00 +13°C° 0.1 mm 4 mps 763 mmHg 94%
    01:00 +13°C° 0.1 mm 4 mps 762 mmHg 94%
    02:00 +13°C° 0 mm 4 mps 762 mmHg 94%
    03:00 +14°C° 0 mm 4 mps 762 mmHg 95%
    04:00 +14°C° 0 mm 4 mps 762 mmHg 95%
    05:00 +14°C° 0 mm 3 mps 762 mmHg 95%
    06:00 +14°C° 0 mm 3 mps 762 mmHg 96%
    07:00 +14°C° 0 mm 3 mps 762 mmHg 96%
    08:00 +15°C° 0 mm 4 mps 762 mmHg 94%
    09:00 +15°C° 0 mm 4 mps 762 mmHg 92%
    10:00 +17°C° 0 mm 4 mps 761 mmHg 90%
    11:00 +18°C° 0 mm 4 mps 760 mmHg 89%
    12:00 +18°C° 0 mm 4 mps 759 mmHg 88%
    13:00 +19°C° 0 mm 4 mps 758 mmHg 86%
    14:00 +18°C° 1.4 mm 4 mps 758 mmHg 87%
    15:00 +18°C° 1.4 mm 4 mps 758 mmHg 89%
    16:00 +18°C° 1.4 mm 4 mps 757 mmHg 90%
    17:00 +18°C° 1 mm 4 mps 757 mmHg 91%
    18:00 +17°C° 1 mm 4 mps 758 mmHg 93%
    19:00 +17°C° 1 mm 3 mps 758 mmHg 94%
    20:00 +15°C° 0 mm 4 mps 758 mmHg 93%
    21:00 +15°C° 0 mm 4 mps 758 mmHg 91%
    22:00 +14°C° 0 mm 5 mps 758 mmHg 90%
    23:00 +13°C° 0 mm 5 mps 759 mmHg 86%

    20 December, Wednesday

    Time Temperature Precipitation Wind Pressure Humidity
    00:00 +13°C° 0 mm 5 mps 759 mmHg 82%
    01:00 +11°C° 0 mm 6 mps 760 mmHg 78%
    02:00 +10°C° 0 mm 6 mps 760 mmHg 74%
    03:00 +9°C° 0 mm 6 mps 761 mmHg 69%
    04:00 +6°C° 0 mm 7 mps 761 mmHg 65%
    05:00 +6°C° 0 mm 7 mps 762 mmHg 63%
    06:00 +5°C° 0 mm 6 mps 762 mmHg 61%
    07:00 +4°C° 0 mm 6 mps 763 mmHg 58%
    08:00 +4°C° 0 mm 6 mps 764 mmHg 53%
    09:00 +5°C° 0 mm 7 mps 764 mmHg 48%
    10:00 +5°C° 0 mm 7 mps 765 mmHg 43%
    11:00 +6°C° 0 mm 7 mps 764 mmHg 41%
    12:00 +6°C° 0 mm 7 mps 764 mmHg 39%
    13:00 +6°C° 0 mm 7 mps 764 mmHg 36%
    14:00 +7°C° 0 mm 6 mps 764 mmHg 38%
    15:00 +7°C° 0 mm 5 mps 764 mmHg 39%
    16:00 +7°C° 0 mm 5 mps 765 mmHg 40%
    17:00 +6°C° 0 mm 4 mps 765 mmHg 42%
    18:00 +5°C° 0 mm 4 mps 766 mmHg 45%
    19:00 +4°C° 0 mm 4 mps 767 mmHg 47%
    20:00 +4°C° 0 mm 3 mps 767 mmHg 49%
    21:00 +3°C° 0 mm 3 mps 768 mmHg 50%
    22:00 +3°C° 0 mm 3 mps 768 mmHg 52%
    23:00 +3°C° 0 mm 3 mps 768 mmHg 53%
    Show more